• In Hungary
  • List of Countries
  • For 7 days
  • Water Temperature
  • Satellite Maps
  • Weather Map
  • News
  • Weather Widgets
  • user-avatar
    Login

    Hourly Weather Irgizly

    Today, 26 May, Saturday

    Time Temperature Precipitation Wind Pressure Humidity
    00:00 +7°C° 1.3 mm 4 mps 733 mmHg 90%
    01:00 +6°C° 1.3 mm 4 mps 733 mmHg 90%
    02:00 +6°C° 0.2 mm 4 mps 733 mmHg 90%
    03:00 +5°C° 0.2 mm 5 mps 733 mmHg 90%
    04:00 +5°C° 0.2 mm 5 mps 733 mmHg 89%
    05:00 +5°C° 0 mm 5 mps 734 mmHg 86%
    06:00 +4°C° 0 mm 6 mps 734 mmHg 83%
    07:00 +5°C° 0 mm 6 mps 734 mmHg 80%
    08:00 +7°C° 0 mm 6 mps 735 mmHg 72%
    09:00 +7°C° 0 mm 6 mps 735 mmHg 64%
    10:00 +8°C° 0 mm 7 mps 736 mmHg 56%
    11:00 +9°C° 0 mm 6 mps 736 mmHg 50%
    12:00 +10°C° 0 mm 6 mps 737 mmHg 45%
    13:00 +11°C° 0 mm 6 mps 737 mmHg 40%
    14:00 +11°C° 0 mm 6 mps 737 mmHg 40%
    15:00 +11°C° 0 mm 6 mps 738 mmHg 40%
    16:00 +11°C° 0 mm 6 mps 738 mmHg 40%
    17:00 +10°C° 0 mm 6 mps 738 mmHg 42%
    18:00 +9°C° 0 mm 5 mps 739 mmHg 45%
    19:00 +8°C° 0 mm 5 mps 739 mmHg 47%
    20:00 +7°C° 0 mm 4 mps 740 mmHg 51%
    21:00 +5°C° 0 mm 4 mps 741 mmHg 54%
    22:00 +4°C° 0 mm 3 mps 741 mmHg 57%
    23:00 +3°C° 0 mm 3 mps 742 mmHg 60%

    Tomorrow, 27 May, Sunday

    Time Temperature Precipitation Wind Pressure Humidity
    00:00 +2°C° 0 mm 3 mps 742 mmHg 63%
    01:00 +2°C° 0 mm 2 mps 742 mmHg 66%
    02:00 +2°C° 0 mm 2 mps 743 mmHg 68%
    03:00 +1°C° 0 mm 2 mps 743 mmHg 70%
    04:00 +1°C° 0 mm 2 mps 743 mmHg 72%
    05:00 +3°C° 0 mm 2 mps 743 mmHg 65%
    06:00 +4°C° 0 mm 3 mps 743 mmHg 58%
    07:00 +7°C° 0 mm 3 mps 743 mmHg 50%
    08:00 +8°C° 0 mm 4 mps 743 mmHg 47%
    09:00 +11°C° 0 mm 4 mps 743 mmHg 45%
    10:00 +12°C° 0 mm 5 mps 743 mmHg 42%
    11:00 +13°C° 0 mm 5 mps 742 mmHg 43%
    12:00 +14°C° 0 mm 5 mps 742 mmHg 43%
    13:00 +15°C° 0 mm 5 mps 741 mmHg 44%
    14:00 +16°C° 0 mm 5 mps 741 mmHg 46%
    15:00 +16°C° 0 mm 5 mps 740 mmHg 48%
    16:00 +16°C° 0 mm 6 mps 739 mmHg 49%
    17:00 +16°C° 0 mm 5 mps 739 mmHg 54%
    18:00 +15°C° 0 mm 5 mps 738 mmHg 59%
    19:00 +14°C° 0 mm 4 mps 738 mmHg 64%
    20:00 +13°C° 0 mm 4 mps 737 mmHg 69%
    21:00 +12°C° 0 mm 4 mps 737 mmHg 73%
    22:00 +11°C° 0 mm 4 mps 737 mmHg 77%
    23:00 +11°C° 0 mm 4 mps 736 mmHg 77%

    Day after tomorrow, 28 May, Monday

    Time Temperature Precipitation Wind Pressure Humidity
    00:00 +9°C° 0 mm 5 mps 735 mmHg 78%
    01:00 +9°C° 0 mm 5 mps 734 mmHg 78%
    02:00 +9°C° 0.1 mm 5 mps 733 mmHg 79%
    03:00 +9°C° 0.1 mm 6 mps 733 mmHg 80%
    04:00 +9°C° 0.1 mm 6 mps 732 mmHg 81%
    05:00 +8°C° 2 mm 6 mps 731 mmHg 85%
    06:00 +8°C° 2 mm 6 mps 731 mmHg 90%
    07:00 +8°C° 2 mm 6 mps 731 mmHg 95%
    08:00 +8°C° 0.7 mm 6 mps 731 mmHg 92%
    09:00 +8°C° 0.7 mm 5 mps 731 mmHg 89%
    10:00 +9°C° 0.7 mm 5 mps 731 mmHg 87%
    11:00 +10°C° 0.4 mm 5 mps 731 mmHg 79%
    12:00 +12°C° 0.4 mm 5 mps 731 mmHg 72%
    13:00 +13°C° 0.4 mm 5 mps 732 mmHg 64%
    14:00 +12°C° 0.6 mm 5 mps 732 mmHg 67%
    15:00 +10°C° 0.6 mm 5 mps 732 mmHg 69%
    16:00 +10°C° 0.6 mm 5 mps 732 mmHg 72%
    17:00 +9°C° 0.2 mm 5 mps 732 mmHg 75%
    18:00 +8°C° 0.2 mm 4 mps 733 mmHg 78%
    19:00 +7°C° 0.2 mm 4 mps 733 mmHg 80%
    20:00 +6°C° 0.1 mm 4 mps 733 mmHg 84%
    21:00 +5°C° 0.1 mm 3 mps 734 mmHg 87%
    22:00 +4°C° 0.1 mm 3 mps 734 mmHg 90%
    23:00 +3°C° 0 mm 3 mps 734 mmHg 91%

    29 May, Tuesday

    Time Temperature Precipitation Wind Pressure Humidity
    00:00 +2°C° 0 mm 3 mps 734 mmHg 92%
    01:00 +2°C° 0 mm 3 mps 734 mmHg 93%
    02:00 +1°C° 0 mm 3 mps 734 mmHg 93%
    03:00 +1°C° 0 mm 2 mps 734 mmHg 94%
    04:00 +1°C° 0 mm 2 mps 734 mmHg 94%
    05:00 +1°C° 0 mm 3 mps 734 mmHg 87%
    06:00 +1°C° 0 mm 4 mps 734 mmHg 81%
    07:00 +3°C° 0 mm 4 mps 735 mmHg 74%
    08:00 +3°C° 0.1 mm 5 mps 734 mmHg 67%
    09:00 +5°C° 0.1 mm 5 mps 734 mmHg 60%
    10:00 +5°C° 0.1 mm 6 mps 734 mmHg 52%
    11:00 +7°C° 0.1 mm 6 mps 734 mmHg 51%
    12:00 +7°C° 0.1 mm 6 mps 734 mmHg 50%
    13:00 +8°C° 0.1 mm 6 mps 734 mmHg 49%
    14:00 +8°C° 0.1 mm 6 mps 734 mmHg 50%
    15:00 +8°C° 0.1 mm 6 mps 734 mmHg 52%
    16:00 +8°C° 0.1 mm 5 mps 734 mmHg 54%
    17:00 +7°C° 0.1 mm 5 mps 734 mmHg 59%
    18:00 +7°C° 0.1 mm 4 mps 734 mmHg 64%
    19:00 +7°C° 0.1 mm 3 mps 733 mmHg 69%
    20:00 +5°C° 0 mm 2 mps 733 mmHg 76%
    21:00 +3°C° 0 mm 2 mps 734 mmHg 83%
    22:00 +3°C° 0 mm 1 mps 734 mmHg 89%
    23:00 +2°C° 0 mm 1 mps 733 mmHg 89%

    30 May, Wednesday

    Time Temperature Precipitation Wind Pressure Humidity
    00:00 +2°C° 0 mm 1 mps 733 mmHg 88%
    01:00 +2°C° 0 mm 1 mps 733 mmHg 88%
    02:00 +2°C° 0 mm 1 mps 733 mmHg 88%
    03:00 +2°C° 0 mm 1 mps 733 mmHg 88%
    04:00 +1°C° 0 mm 0 mps 733 mmHg 88%
    05:00 +4°C° 0.1 mm 1 mps 733 mmHg 82%
    06:00 +4°C° 0.1 mm 2 mps 733 mmHg 76%
    07:00 +5°C° 0.1 mm 3 mps 733 mmHg 70%
    08:00 +7°C° 0.1 mm 3 mps 733 mmHg 61%
    09:00 +7°C° 0.1 mm 4 mps 733 mmHg 52%
    10:00 +8°C° 0.1 mm 5 mps 733 mmHg 43%
    11:00 +9°C° 0 mm 5 mps 733 mmHg 43%
    12:00 +9°C° 0 mm 5 mps 733 mmHg 43%
    13:00 +10°C° 0 mm 5 mps 733 mmHg 42%
    14:00 +9°C° 0 mm 5 mps 733 mmHg 44%
    15:00 +9°C° 0 mm 5 mps 733 mmHg 46%
    16:00 +9°C° 0 mm 5 mps 734 mmHg 48%
    17:00 +10°C° 0.1 mm 4 mps 734 mmHg 54%
    18:00 +9°C° 0.1 mm 3 mps 734 mmHg 59%
    19:00 +8°C° 0.1 mm 2 mps 734 mmHg 65%
    20:00 +6°C° 0 mm 2 mps 734 mmHg 71%
    21:00 +5°C° 0 mm 1 mps 734 mmHg 78%
    22:00 +2°C° 0 mm 0 mps 734 mmHg 85%
    23:00 +2°C° 0 mm 0 mps 734 mmHg 85%

    31 May, Thursday

    Time Temperature Precipitation Wind Pressure Humidity
    00:00 +2°C° 0 mm 0 mps 734 mmHg 86%
    01:00 +1°C° 0 mm 0 mps 734 mmHg 86%
    02:00 +1°C° 0 mm 0 mps 734 mmHg 86%
    03:00 +1°C° 0 mm 0 mps 734 mmHg 87%
    04:00 +2°C° 0 mm 1 mps 734 mmHg 88%
    05:00 +4°C° 0 mm 1 mps 733 mmHg 78%
    06:00 +7°C° 0 mm 1 mps 733 mmHg 69%
    07:00 +9°C° 0 mm 1 mps 733 mmHg 60%
    08:00 +10°C° 0 mm 2 mps 733 mmHg 54%
    09:00 +11°C° 0 mm 3 mps 733 mmHg 49%
    10:00 +12°C° 0 mm 3 mps 732 mmHg 43%
    11:00 +12°C° 0 mm 4 mps 732 mmHg 47%
    12:00 +13°C° 0 mm 5 mps 731 mmHg 51%
    13:00 +13°C° 0 mm 5 mps 730 mmHg 55%
    14:00 +13°C° 0.2 mm 6 mps 729 mmHg 59%
    15:00 +13°C° 0.2 mm 6 mps 729 mmHg 63%
    16:00 +13°C° 0.2 mm 6 mps 728 mmHg 68%
    17:00 +11°C° 1.8 mm 6 mps 727 mmHg 76%
    18:00 +10°C° 1.8 mm 5 mps 725 mmHg 84%
    19:00 +10°C° 1.8 mm 5 mps 724 mmHg 92%
    20:00 +9°C° 4.1 mm 5 mps 724 mmHg 93%
    21:00 +8°C° 4.1 mm 6 mps 723 mmHg 93%
    22:00 +8°C° 4.1 mm 7 mps 723 mmHg 94%
    23:00 +5°C° 0 mm 6 mps 724 mmHg 93%
    Show more